Location: Branche des Alpilles
(43.6087°N, 4.6976°E)
Time: 10:30:18
(UTC+00:00)

FENGYUN 1C DEB - Pass Details

Date: 30 June 2021
Orbit: 782 x 878 km, 99.7° (Epoch: 28 July)

Event Time Altitude Azimuth Distance (km) Brightness Sun altitude
Exits shadow 02:29:09 19° 228° (SW) 1,824 ? -13.3°
Maximum altitude 02:31:25 25° 264° (W) 1,550 ? -13.1°
Drops below altitude 10° 02:35:40 10° 319° (NW) 2,352 ? -12.6°
Sets 02:38:23 0° 333° (NNW) 3,281 ? -12.3°
